Cloud_Cover
85 100 87 5 4 5 5 5 5 12 7 79 41 5 4 14 16 97 72 40 24 5 0 5 76 54 99 12 11 54 99 90 5 59 100 100 100 100 100 100 100 50 100 98
96 100 100 85 5 4 5 5 8 5 5 17 96 6 5 2 37 18 100 97 25 88 3 0 4 5 9 79 95 46 32 76 100 80 100 99 98 96 100 94 100 100 100 87
24 98 100 99 39 1 4 11 65 28 5 0 5 33 14 3 5 81 100 100 100 62 90 2 1 0 2 8 19 30 62 26 87 92 76 100 98 96 100 100 100 98 97 79
48 10 16 8 9 4 0 94 72 5 0 3 0 0 0 0 5 45 100 100 100 72 98 22 67 0 0 0 0 0 0 0 37 100 100 100 100 99 100 98 100 100 100 62
0 0 0 0 4 30 1 91 81 17 2 0 0 0 0 0 5 5 86 99 100 97 87 23 98 22 0 0 0 0 0 0 0 1 36 99 100 100 100 100 100 100 100 99
0 0 0 0 0 5 5 56 5 5 4 0 0 0 2 0 0 5 83 100 97 100 38 28 7 19 4 1 0 0 0 0 0 0 0 3 25 96 100 100 100 100 100 100
0 0 0 0 0 2 4 1 11 22 1 0 0 0 0 0 0 1 33 100 66 83 30 20 79 44 5 4 0 75 1 29 3 0 0 0 0 0 0 22 76 51 31 18
0 0 0 0 0 0 4 59 5 51 5 5 0 0 0 0 0 0 78 13 100 71 98 97 47 19 6 2 3 5 8 35 32 0 0 0 0 0 7 5 36 0 0 0
0 0 0 0 0 0 0 2 6 5 3 0 0 0 0 0 0 0 1 52 100 100 98 100 88 41 5 73 5 4 3 11 31 18 0 3 20 60 14 20 0 0 0 0
0 0 0 0 0 0 0 0 3 11 2 0 0 0 0 0 0 0 5 5 92 100 79 72 12 5 5 4 5 1 5 5 17 5 2 4 95 97 100 52 0 0 0 6
0 0 0 0 0 0 0 0 0 1 2 3 0 0 0 0 0 0 0 5 91 100 100 99 56 9 5 5 5 5 17 33 19 75 37 9 73 95 58 42 18 4 2 4
0 0 0 0 0 0 0 0 0 0 0 0 0 0 0 0 0 0 0 1 42 98 100 92 5 5 5 4 1 5 32 25 78 85 5 19 72 100 94 51 4 0 5 4
0 0 0 0 0 0 0 0 0 0 0 0 0 0 0 0 0 0 0 0 0 22 100 100 95 5 5 12 49 50 57 73 91 5 88 99 100 100 85 5 5 5 5 5
0 0 0 0 0 0 0 0 0 0 0 0 0 0 0 0 0 0 0 0 0 0 36 80 31 0 7 32 56 78 82 32 29 97 100 100 100 66 5 5 5 5 1 2
0 0 0 0 0 0 0 0 0 0 0 0 0 0 0 0 0 0 0 0 0 0 0 0 14 44 57 74 75 94 50 63 100 100 100 100 100 99 5 5 5 5 5 5
5 0 0 0 0 0 0 0 0 0 0 0 0 0 0 0 0 0 0 0 0 0 0 0 37 73 100 90 77 86 57 100 100 100 100 100 100 100 100 3 2 5 5 4
14 5 4 0 0 0 0 0 0 0 0 0 0 0 0 0 0 0 0 0 0 0 0 8 58 84 100 100 99 70 100 100 100 100 100 100 100 100 100 99 2 5 8 5
0 41 3 0 0 0 0 0 0 0 0 0 0 0 0 0 0 0 0 0 0 0 0 7 69 100 100 77 49 28 100 100 100 100 100 100 100 100 100 42 9 5 3 1
0 1 5 0 88 0 0 0 5 5 0 0 0 0 0 0 0 0 0 0 0 0 0 3 13 92 77 54 15 0 45 100 100 100 100 100 100 97 100 63 3 5 1 4
0 0 0 0 7 84 4 3 12 8 5 0 0 0 0 0 0 0 0 0 0 0 0 5 62 88 60 51 0 0 38 6 99 100 100 90 5 35 50 40 3 0 5 18
0 5 5 2 6 75 74 1 2 43 4 0 0 0 0 0 0 0 0 0 0 0 0 66 61 49 50 31 0 4 63 19 17 99 98 99 92 5 5 5 5 4 43 77
0 1 5 13 5 47 62 16 40 1 5 4 0 0 0 0 0 0 0 0 1 14 95 97 48 57 59 7 41 73 79 100 52 63 9 35 95 6 6 50 22 89 73 99
0 0 5 16 4 2 58 100 100 78 5 15 18 0 0 0 6 20 29 34 94 100 100 33 36 84 100 99 100 100 100 84 100 98 99 46 87 42 85 99 99 95 100 28
0 0 3 5 5 5 5 5 73 100 83 0 1 8 2 0 8 42 43 93 100 100 100 100 100 100 100 100 100 100 100 100 69 80 97 99 82 88 100 99 97 99 99 67
0 0 0 2 5 3 5 96 15 81 24 0 4 2 5 5 0 26 67 33 38 99 99 87 94 100 100 100 100 100 100 100 96 52 98 19 54 78 89 100 100 95 91 100
0 0 0 0 15 5 5 6 100 100 44 85 77 57 24 5 86 28 54 24 9 23 4 56 100 100 100 100 100 100 100 100 100 96 100 87 98 100 95 100 100 69 80 100